Regional Weather Roundup
Issued by NWS State College, PA

Home | Current Version | Previous Version | Text Only | Print | Product List | Glossary Off
Versions: 1 2 3 4 5 6 7 8 9 10 11 12 13 14 15 16 17 18 19 20 21 22 23 24 25 26 27 28 29 30 31 32 33 34 35 36 37 38 39 40 41 42 43 44 45 46 47 48 49 50

000
ASUS41 KCTP 180403
RWRCTP

REGIONAL WEATHER ROUNDUP
NATIONAL WEATHER SERVICE STATE COLLEGE PA
1200 AM EDT FRI AUG 18 2017

Note: "fair" indicates few or no clouds below 12,000 feet with no
significant weather and/or obstructions to visibility.

* = STATION THAT DOES NOT REPORT PRECIPITATION /E.G. RAIN...SNOW...ETC/
    THUNDER OR FOG.

PAZ002>004-007>009-013>016-020>023-029>032-180500-
WESTERN PENNSYLVANIA

CITY           SKY/WX    TMP DP  RH WIND       PRES   REMARKS
ERIE           CLEAR     75  72  90 S14       29.78S
MEADVILLE      CLOUDY    73  73 100 SW8       29.84S
FRANKLIN*      CLOUDY    73  70  88 SW10      29.87S
NEW CASTLE     MOCLDY    74  73  97 SW5       29.86S
BEAVER COUNTY  NOT AVBL
BUTLER*        MOCLDY    72  71  97 SW9       29.89S
PITTSBURGH INT CLOUDY    73  70  90 SW7       29.89R
PITTSBURGH     CLOUDY    72  68  87 S10       29.89S
INDIANA*       PTCLDY    73  72  94 SW7       29.93S
LATROBE        PTCLDY    73  73 100 S6        29.90F
WASHINGTON CO* PTCLDY    70  66  88 W3        29.92R
$$

PAZ004>006-010>012-017>019-024>028-033>037-041-042-045-046-049>053-180500-
CENTRAL PENNSYLVANIA

CITY           SKY/WX    TMP DP  RH WIND       PRES   REMARKS
BRADFORD       CLOUDY    72  72 100 S8        29.89S
DUBOIS         CLOUDY    75  67  76 VRB7      29.89F
CLEARFIELD     CLOUDY    77  72  84 SW8       29.90F
JOHNSTOWN      CLOUDY    74  68  81 SW9       29.96F
ALTOONA        CLOUDY    74  72  93 S9        29.92F
STATE COLLEGE  DRIZZLE   75  72  89 SW3       29.90F
WILLIAMSPORT   CLOUDY    80  72  76 S18G28    29.86F
SELINSGROVE    MOCLDY    78  73  84 S3        29.89F
FT INDIANTOWN  CLOUDY    76  74  92 CALM      29.93F
CAPITAL CITY   CLOUDY    78  72  81 SE5       29.90F
HARRISBURG     CLOUDY    78  74  87 SE7       29.90F
YORK           CLOUDY    75  74  96 SE7       29.91F
$$

PAZ038>040-043-044-047-048-054-055-060>062-067>071-180500-
EASTERN PENNSYLVANIA

CITY           SKY/WX    TMP DP  RH WIND       PRES   REMARKS
SCRANTON       CLOUDY    76  67  73 CALM      29.93F
MOUNT POCONO   CLOUDY    69  68  96 S8        30.01F
ALLENTOWN      CLOUDY    78  69  73 S7        29.95F
QUAKERTOWN*    CLOUDY    75  72  88 S3        29.97F
READING        CLOUDY    77  73  87 S7        29.92F
LANCASTER      CLOUDY    74  73  97 SE6       29.93F
COATESVILLE    PTCLDY    73  73 100 CALM      29.97F FOG
POTTSTOWN      MOCLDY    74  72  93 CALM      29.97F
BLUE BELL      PTCLDY    72  70  94 S5        29.97F
DOYLESTOWN     CLOUDY    73  68  84 SE5       29.95F
WILLOW GROVE   NOT AVBL
NORTH PHILA    MOCLDY    78  70  76 CALM      29.97F
PHILADELPHIA   PTCLDY    76  71  85 SE7       29.95F
$$




USA.gov is the U.S. government's official web portal to all federal, state and local government web resources and services.